Weather History for Omaha Millard, NE

Change the Weather History Date:

Wednesday, April 16, 2014

  Actual Average (KOMA) Record (KOMA)
Temperature  
Mean Temperature 52 °F 52 °F  
Max Temperature 67 °F 64 °F 90 °F (1964)
Min Temperature 35 °F 40 °F 21 °F (1875)
Degree Days  
Heating Degree Days 14 13  
Month to date heating degree days 259  
Since 1 July heating degree days 5848  
Cooling Degree Days 0 0  
Month to date cooling degree days 0  
Year to date cooling degree days 1  
Growing Degree Days 2 (Base 50)    
Moisture  
Dew Point 29 °F    
Average Humidity 50    
Maximum Humidity 72    
Minimum Humidity 24    
Precipitation  
Precipitation 0.00 in 0.10 in 1.07 in (2000)
Month to date precipitation 1.41  
Year to date precipitation 4.97  
Snow  
Snow 0.00 in 0.00 in - ()
Month to date snowfall 0.7  
Since 1 July snowfall 26.1  
Snow Depth -    
Sea Level Pressure  
Sea Level Pressure 29.81 in    
Wind  
Wind Speed 15 mph (SSW)    
Max Wind Speed 31 mph    
Max Gust Speed 40 mph    
Visibility 10 miles    
Events      
T = Trace of Precipitation, MM = Missing Value Source: NWS Daily Summary

Daily Weather History Graph

Daily Weather History Graph

Search for Another Location

Airport:

Trip Planner

Search our weather history database for the weather conditions in past years. The results will help you decide how hot, cold, wet, or windy it might be!

Date:

Astronomy

Apr. 16, 2014 Rise Set
Actual Time 6:43 AM CDT 8:05 PM CDT
Civil Twilight 6:14 AM CDT 8:34 PM CDT
Nautical Twilight 5:40 AM CDT 9:08 PM CDT
Astronomical Twilight 5:04 AM CDT 9:45 PM CDT
Moon 9:51 PM CDT (4/16) 7:31 AM CDT (4/16)
Length of Visible Light 14h 19m
Length of Day
13h 22m
Full, 98% of the Moon is Illuminated
Apr 16
Full
Apr 22
Last Quarter
Apr 29
New
May 6
First Quarter
May 14
Full

Hourly Weather History & Observations

Time (CDT) Temp. Windchill Dew Point Humidity Pressure Visibility Wind Dir Wind Speed Gust Speed Precip Events Conditions
12:15 AM 47.3 °F - 30.2 °F 52% 29.83 in 10.0 mi SE 12.7 mph 20.7 mph N/A   Clear
12:35 AM 46.9 °F - 30.2 °F 52% 29.83 in 10.0 mi SE 15.0 mph 20.7 mph N/A   Clear
12:55 AM 46.6 °F - 30.4 °F 53% 29.83 in 10.0 mi SSE 12.7 mph 19.6 mph N/A   Clear
1:15 AM 46.6 °F - 30.2 °F 53% 29.82 in 10.0 mi SSE 13.8 mph 20.7 mph N/A   Clear
1:35 AM 45.9 °F 40.0 °F 30.0 °F 54% 29.82 in 10.0 mi SSE 12.7 mph - N/A   Clear
1:55 AM 45.5 °F 39.9 °F 30.2 °F 55% 29.81 in 10.0 mi SSE 11.5 mph - N/A   Clear
2:15 AM 45.0 °F 38.9 °F 29.8 °F 55% 29.80 in 10.0 mi SSE 12.7 mph 18.4 mph N/A   Clear
2:35 AM 45.0 °F 38.9 °F 29.3 °F 54% 29.80 in 10.0 mi SSE 12.7 mph 18.4 mph N/A   Clear
2:55 AM 44.6 °F 38.8 °F 29.3 °F 55% 29.79 in 10.0 mi SSE 11.5 mph - N/A   Clear
3:15 AM 44.1 °F 38.1 °F 29.3 °F 56% 29.79 in 10.0 mi SE 11.5 mph 18.4 mph N/A   Clear
3:35 AM 44.4 °F 38.6 °F 28.9 °F 55% 29.78 in 10.0 mi SE 11.5 mph 18.4 mph N/A   Clear
3:55 AM 44.6 °F 38.8 °F 28.8 °F 54% 29.78 in 10.0 mi SE 11.5 mph 18.4 mph N/A   Clear
4:15 AM 45.0 °F 39.7 °F 28.4 °F 52% 29.77 in 10.0 mi SSE 10.4 mph 19.6 mph N/A   Clear
4:35 AM 45.1 °F 38.4 °F 28.2 °F 52% 29.76 in 10.0 mi SSE 15.0 mph 21.9 mph N/A   Clear
5:15 AM 45.9 °F 39.4 °F 27.7 °F 49% 29.75 in 10.0 mi SSE 15.0 mph 19.6 mph N/A   Clear
5:35 AM 46.2 °F 39.5 °F 27.7 °F 48% 29.75 in 10.0 mi SSE 16.1 mph 20.7 mph N/A   Clear
5:55 AM 46.2 °F 40.1 °F 28.0 °F 49% 29.75 in 10.0 mi SSE 13.8 mph 19.6 mph N/A   Clear
6:15 AM 46.4 °F 40.7 °F 27.5 °F 48% 29.74 in 10.0 mi SSE 12.7 mph 19.6 mph N/A   Scattered Clouds
6:35 AM 46.4 °F 40.4 °F 27.9 °F 48% 29.74 in 10.0 mi SSE 13.8 mph 19.6 mph N/A   Scattered Clouds
6:55 AM 46.8 °F - 27.5 °F 47% 29.75 in 10.0 mi SSE 9.2 mph 18.4 mph N/A   Scattered Clouds
7:15 AM 46.8 °F - 27.5 °F 47% 29.75 in 10.0 mi SE 12.7 mph 19.6 mph N/A   Scattered Clouds
7:35 AM 47.3 °F - 27.5 °F 46% 29.75 in 10.0 mi SSE 15.0 mph 21.9 mph N/A   Clear
7:55 AM 47.5 °F - 27.7 °F 46% 29.75 in 10.0 mi SSE 15.0 mph 26.5 mph N/A   Scattered Clouds
8:15 AM 47.7 °F - 27.7 °F 46% 29.74 in 10.0 mi SSE 17.3 mph 25.3 mph N/A   Clear
8:35 AM 48.9 °F - 28.0 °F 44% 29.75 in 10.0 mi South 16.1 mph 23.0 mph N/A   Clear
8:55 AM 50.2 °F - 28.4 °F 43% 29.74 in 10.0 mi South 15.0 mph 23.0 mph N/A   Clear
9:15 AM 50.5 °F - 28.2 °F 42% 29.73 in 10.0 mi SSE 16.1 mph 26.5 mph N/A   Clear
9:35 AM 50.4 °F - 28.0 °F 42% 29.73 in 10.0 mi South 12.7 mph 29.9 mph N/A   Clear
9:55 AM 51.3 °F - 28.0 °F 41% 29.73 in 10.0 mi South 17.3 mph 27.6 mph N/A   Clear
10:15 AM 52.2 °F - 28.4 °F 40% 29.72 in 10.0 mi South 20.7 mph 26.5 mph N/A   Clear
10:35 AM 52.5 °F - 28.0 °F 39% 29.73 in 10.0 mi South 17.3 mph 26.5 mph N/A   Scattered Clouds
10:55 AM 53.6 °F - 27.3 °F 36% 29.74 in 10.0 mi South 17.3 mph 27.6 mph N/A   Clear
11:15 AM 54.0 °F - 27.9 °F 37% 29.73 in 10.0 mi South 15.0 mph 26.5 mph N/A   Scattered Clouds
11:35 AM 54.1 °F - 28.6 °F 37% 29.72 in 10.0 mi South 16.1 mph 28.8 mph N/A   Scattered Clouds
11:55 AM 56.3 °F - 29.3 °F 36% 29.71 in 10.0 mi South 19.6 mph 26.5 mph N/A   Clear
12:15 PM 59.0 °F - 27.9 °F 31% 29.71 in 10.0 mi South 17.3 mph 31.1 mph N/A   Clear
12:35 PM 60.4 °F - 26.2 °F 27% 29.70 in 10.0 mi South 13.8 mph 35.7 mph N/A   Clear
1:15 PM 61.9 °F - 27.9 °F 28% 29.69 in 10.0 mi South 13.8 mph 23.0 mph N/A   Clear
1:35 PM 63.7 °F - 27.9 °F 26% 29.69 in 10.0 mi South 13.8 mph 27.6 mph N/A   Clear
1:55 PM 64.4 °F - 26.2 °F 24% 29.69 in 10.0 mi SW 15.0 mph 31.1 mph N/A   Clear
2:15 PM 65.1 °F - 27.1 °F 24% 29.69 in 10.0 mi SSW 21.9 mph 29.9 mph N/A   Clear
2:35 PM 64.8 °F - 27.3 °F 24% 29.70 in 10.0 mi SW 12.7 mph 25.3 mph N/A   Clear
2:55 PM 65.5 °F - 27.9 °F 24% 29.69 in 10.0 mi SW 12.7 mph 24.2 mph N/A   Clear
3:15 PM 66.0 °F - 28.0 °F 24% 29.68 in 10.0 mi SW 13.8 mph 26.5 mph N/A   Clear
3:35 PM 67.1 °F - 28.8 °F 24% 29.68 in 10.0 mi SSW 18.4 mph 27.6 mph N/A   Clear
3:55 PM 67.5 °F - 30.0 °F 25% 29.68 in 10.0 mi WSW 17.3 mph 26.5 mph N/A   Mostly Cloudy
4:15 PM 64.2 °F - 33.8 °F 32% 29.70 in 10.0 mi WNW 24.2 mph 32.2 mph N/A   Mostly Cloudy
4:35 PM 58.8 °F - 35.1 °F 41% 29.73 in 10.0 mi WNW 31.1 mph 38.0 mph N/A   Scattered Clouds
4:55 PM 56.3 °F - 35.1 °F 45% 29.75 in 10.0 mi NW 26.5 mph 35.7 mph N/A   Clear
5:15 PM 52.9 °F - 34.2 °F 49% 29.78 in 10.0 mi NW 25.3 mph 35.7 mph N/A   Scattered Clouds
5:35 PM 50.9 °F - 33.1 °F 51% 29.80 in 10.0 mi NW 25.3 mph 33.4 mph N/A   Scattered Clouds
5:55 PM 47.5 °F - 32.0 °F 55% 29.82 in 10.0 mi WNW 29.9 mph 36.8 mph N/A   Clear
6:15 PM 44.8 °F 35.5 °F 31.8 °F 60% 29.84 in 10.0 mi NW 26.5 mph 40.3 mph N/A   Clear
6:35 PM 43.0 °F 33.5 °F 31.8 °F 65% 29.87 in 10.0 mi NW 24.2 mph 39.1 mph N/A   Clear
6:55 PM 42.3 °F 33.1 °F 31.6 °F 66% 29.89 in 10.0 mi NW 21.9 mph 28.8 mph N/A   Scattered Clouds
7:15 PM 40.5 °F 30.9 °F 31.3 °F 70% 29.91 in 10.0 mi NW 20.7 mph 33.4 mph N/A   Clear
7:35 PM 40.1 °F 30.5 °F 31.3 °F 71% 29.93 in 10.0 mi NW 20.7 mph 29.9 mph N/A   Mostly Cloudy
7:55 PM 39.6 °F 30.3 °F 30.9 °F 71% 29.95 in 10.0 mi NW 18.4 mph 32.2 mph N/A   Overcast
8:15 PM 38.8 °F 28.8 °F 30.2 °F 71% 29.96 in 10.0 mi NW 20.7 mph 32.2 mph N/A   Overcast
8:35 PM 38.8 °F 30.4 °F 30.2 °F 71% 29.98 in 10.0 mi NW 15.0 mph 25.3 mph N/A   Overcast
8:55 PM 38.7 °F 29.8 °F 30.2 °F 72% 30.00 in 10.0 mi NW 16.1 mph 31.1 mph N/A   Overcast
9:15 PM 38.7 °F 29.1 °F 30.2 °F 72% 30.01 in 10.0 mi NW 18.4 mph 25.3 mph N/A   Overcast
9:35 PM 38.3 °F 29.0 °F 30.0 °F 72% 30.03 in 10.0 mi NW 17.3 mph 20.7 mph N/A   Overcast
9:55 PM 38.3 °F 28.4 °F 29.8 °F 72% 30.05 in 10.0 mi NW 19.6 mph 28.8 mph N/A   Overcast
10:15 PM 37.6 °F 28.4 °F 29.3 °F 72% 30.06 in 10.0 mi NW 16.1 mph 24.2 mph N/A   Overcast
10:35 PM 37.4 °F 28.5 °F 29.1 °F 72% 30.07 in 10.0 mi NNW 15.0 mph 24.2 mph N/A   Overcast
10:55 PM 36.9 °F 27.1 °F 28.4 °F 71% 30.09 in 10.0 mi NNW 17.3 mph 26.5 mph N/A   Overcast
11:15 PM 36.5 °F 27.8 °F 27.5 °F 70% 30.10 in 10.0 mi NNW 13.8 mph 20.7 mph N/A   Overcast
11:35 PM 36.3 °F 26.8 °F 27.5 °F 70% 30.11 in 10.0 mi NNW 16.1 mph 23.0 mph N/A   Overcast
11:55 PM 35.8 °F 25.7 °F 27.1 °F 71% 30.11 in 10.0 mi NNW 17.3 mph 23.0 mph N/A   Overcast